Location: Newark
(45.5000°N, 11.4167°E)
Time: 19:01:40
(UTC+00:00)

A-11 Canister half - Pass Details

Date: 28 August 2019
Orbit: 1514 x 1686 km, 47.2° (Epoch: 14 October)

Event Time Altitude Azimuth Distance (km) Brightness Sun altitude
Rises 21:59:19 0° 293° (WNW) 4,772 12.2 -32.3°
Reaches altitude 10° 22:02:33 10° 287° (WNW) 3,809 11.5 -32.5°
Enters shadow 22:11:05 44° 226° (SW) 2,144 9.5 -33.1°
Maximum altitude 22:11:31 44° 220° (SW) 2,141 - -33.1°
Drops below altitude 10° 22:20:45 10° 153° (SSE) 3,913 - -33.6°
Sets 22:24:08 0° 147° (SSE) 4,913 - -33.7°
